[ ตารางข้อมูล ] [ Min-Max ] [ วันนี้4 ] [ วันนี้2 ] [ เทียบ3วัน A ] [ เทียบ4วัน B ]   

วันนี้2   [ ◀ ช่วงเก่ากว่า ] [ ช่วงที่ 256 ] [ ช่วงใหม่กว่า ▶ ] [ ล่าสุด ]    [ 3 ชั่วโมง ] [ 6 ชั่วโมง ] [ 12 ชั่วโมง ] [ 24 ชั่วโมง ]   วันนี้2

อุณภูมิตู้ Knockdown4529  ราย 3 ชั่วโมง  ที่วัดได้ ในช่วงวันเวลา 05/04/2026 (03:58) ถึง 05/04/2026 (06:58) 
ความชื้นในตู้ Knockdown4529  ราย 3 ชั่วโมง  ที่วัดได้ ในช่วงวันเวลา 05/04/2026 (03:58) ถึง 05/04/2026 (06:58) 

 
DS18B20SHTC3 
IDDate d/m/Y & Timedata1
สูง
data2
ต่ำ
data3
นอก
temp
pcb
hum
pcb
Time
 8958  05/04/2026 06:56:16  26.3  26.4  24.4  26.1  70.6  06:56 
 8957  05/04/2026 06:51:34  26.3  26.4  24.4  26.3  70.7  06:51 
 8956  05/04/2026 06:46:52  26.4  26.4  24.3  26.2  70.7  06:46 
 8955  05/04/2026 06:42:10  26.4  26.4  24.0  26.1  70.7  06:42 
 8954  05/04/2026 06:37:28  26.4  26.4  24.2  26.4  70.7  06:37 
 8953  05/04/2026 06:32:46  26.4  26.4  24.2  26.4  70.8  06:32 
 8952  05/04/2026 06:28:05  26.4  26.5  24.3  26.2  70.7  06:28 
 8951  05/04/2026 06:23:23  26.4  26.5  24.4  26.4  70.8  06:23 
 8950  05/04/2026 06:18:41  26.4  26.5  24.3  26.4  70.7  06:18 
 8949  05/04/2026 06:14:00  26.5  26.6  24.2  26.4  70.7  06:14 
 8948  05/04/2026 06:09:18  26.5  26.6  24.4  26.4  70.7  06:09 
 8947  05/04/2026 06:04:36  26.5  26.6  24.3  26.5  70.7  06:04 
 8946  05/04/2026 05:59:50  26.5  26.6  24.4  26.5  70.8  05:59 
 8945  05/04/2026 05:55:09  26.6  26.6  24.3  26.5  70.7  05:55 
 8944  05/04/2026 05:50:27  26.6  26.6  24.4  26.4  70.6  05:50 
 8943  05/04/2026 05:45:45  26.6  26.7  24.5  26.5  70.7  05:45 
 8942  05/04/2026 05:41:03  26.6  26.7  24.4  26.6  70.7  05:41 
 8941  05/04/2026 05:36:22  26.7  26.7  24.5  26.4  70.8  05:36 
 8940  05/04/2026 05:31:40  26.7  26.8  24.4  26.6  70.7  05:31 
 8939  05/04/2026 05:26:58  26.7  26.8  24.5  26.6  70.7  05:26 
 8938  05/04/2026 05:22:15  26.8  26.8  24.3  26.6  70.6  05:22 
 8937  05/04/2026 05:17:33  26.8  26.8  24.2  26.7  70.7  05:17 
 8936  05/04/2026 05:12:51  26.8  26.8  24.2  26.6  70.8  05:12 
 8935  05/04/2026 05:08:10  26.8  26.9  24.0  26.5  70.7  05:08 

Data every 5 minute.


ใช้เวลาประมวลผล 0.00201 วินาที